TimeEDT,TemperatureF,Dew PointF,Humidity,Sea Level PressureIn,VisibilityMPH,Wind Direction,Wind SpeedMPH,Gust SpeedMPH,PrecipitationIn,Events,Conditions,WindDirDegrees,DateUTC
12:51 AM,48.0,39.0,71,29.92,10.0,NNW,5.8,-,N/A,,Clear,330,2012-10-07 04:51:00
1:51 AM,45.0,39.0,80,29.94,10.0,WSW,4.6,-,N/A,,Clear,250,2012-10-07 05:51:00
2:51 AM,42.8,37.4,81,29.94,10.0,Calm,Calm,-,N/A,,Clear,0,2012-10-07 06:51:00
3:51 AM,37.9,37.0,97,29.97,10.0,Calm,Calm,-,N/A,,Clear,0,2012-10-07 07:51:00
4:51 AM,37.9,37.0,97,29.99,10.0,Calm,Calm,-,N/A,,Clear,0,2012-10-07 08:51:00
5:51 AM,37.0,36.0,96,30.01,10.0,Calm,Calm,-,N/A,,Clear,0,2012-10-07 09:51:00
6:51 AM,35.1,34.0,96,30.04,6.0,SSE,4.6,-,N/A,,Clear,150,2012-10-07 10:51:00
7:51 AM,42.1,39.9,92,30.04,10.0,Calm,Calm,-,N/A,,Clear,0,2012-10-07 11:51:00
8:51 AM,48.9,41.0,74,30.06,10.0,Calm,Calm,-,N/A,,Clear,0,2012-10-07 12:51:00
9:51 AM,54.0,37.9,55,30.06,10.0,West,6.9,-,N/A,,Clear,270,2012-10-07 13:51:00
10:51 AM,54.0,37.9,55,30.06,10.0,West,4.6,-,N/A,,Clear,280,2012-10-07 14:51:00
11:51 AM,55.0,36.0,49,30.07,10.0,Variable,5.8,-,N/A,,Partly Cloudy,0,2012-10-07 15:51:00
12:51 PM,54.0,36.0,51,30.06,10.0,WNW,8.1,-,N/A,,Scattered Clouds,300,2012-10-07 16:51:00
1:51 PM,54.0,37.0,53,30.05,10.0,West,8.1,-,N/A,,Clear,270,2012-10-07 17:51:00
2:51 PM,55.0,36.0,49,30.04,10.0,WNW,5.8,-,N/A,,Clear,290,2012-10-07 18:51:00
3:51 PM,54.0,37.0,53,30.03,10.0,WNW,5.8,-,N/A,,Clear,300,2012-10-07 19:51:00
4:51 PM,54.0,36.0,51,30.02,10.0,Calm,Calm,-,N/A,,Clear,0,2012-10-07 20:51:00
5:51 PM,52.0,39.0,61,30.02,10.0,NNE,3.5,-,N/A,,Scattered Clouds,20,2012-10-07 21:51:00
6:51 PM,48.9,43.0,80,30.03,10.0,Calm,Calm,-,N/A,,Overcast,0,2012-10-07 22:51:00
7:51 PM,48.0,44.1,86,30.01,10.0,Calm,Calm,-,N/A,,Overcast,0,2012-10-07 23:51:00
8:51 PM,48.9,42.1,77,30.01,10.0,Calm,Calm,-,N/A,,Overcast,0,2012-10-08 00:51:00
9:51 PM,48.0,45.0,89,30.04,9.0,Calm,Calm,-,0.01,Rain,Light Rain,0,2012-10-08 01:51:00
10:51 PM,46.9,45.0,93,30.06,9.0,NW,3.5,-,0.08,Rain,Light Rain,310,2012-10-08 02:51:00
11:15 PM,46.4,44.6,93,30.04,5.0,NNW,5.8,-,0.03,Rain,Rain,330,2012-10-08 03:15:00
11:51 PM,46.0,45.0,96,30.05,10.0,NNW,3.5,-,0.04,Rain,Light Rain,340,2012-10-08 03:51:00